Location: Sternwarte_Laufen
(47.9344°N, 12.9346°E)
Time: 04:18:55
(UTC+02:00)

ISS - Pass Details

Date: 10 July 2025
Orbit: 413 x 417 km, 51.6° (Epoch: 12 July)

Event Time Altitude Azimuth Distance (km) Brightness Sun altitude
Rises 02:48:58 0° 293° (WNW) 2,359 0.1 -16.7°
Reaches altitude 10° 02:51:04 10° 292° (WNW) 1,495 -1.0 -16.5°
Maximum altitude 02:54:25 83° 205° (SSW) 424 -3.9 -16.3°
Drops below altitude 10° 02:57:46 10° 117° (ESE) 1,490 -1.0 -16.1°
Sets 02:59:51 0° 117° (ESE) 2,351 0.0 -15.9°
